Location: Newark
(51.5114°N, 0.0848°W)
Time: 04:55:26
(UTC+00:00)

OTV 5 (USA 277) - Visible Passes

Search period start: 19 April 2019 00:00
Search period end: 29 April 2019 00:00
Orbit: 310 x 325 km, 54.5° (Epoch: 16 April)

Date Brightness Start Highest point End Pass type
(mag) Time Alt. Az. Time Alt. Az. Time Alt. Az.
19 Apr ? 02:03:14 25° ENE 02:03:14 25° ENE 02:04:40 10° ENE visible
19 Apr ? 03:34:07 12° WNW 03:36:33 78° SSW 03:39:13 10° ESE visible
20 Apr ? 02:17:42 36° ENE 02:17:42 36° ENE 02:19:34 10° E visible
20 Apr ? 03:48:42 10° WNW 03:51:14 38° SSW 03:53:45 10° SE visible
21 Apr ? 02:32:28 44° E 02:32:28 44° E 02:34:27 10° ESE visible
21 Apr ? 04:03:48 10° W 04:05:50 19° SW 04:07:50 10° S visible
22 Apr ? 02:47:45 26° SE 02:47:45 26° SE 02:49:07 10° SE visible
23 Apr ? 20:56:00 10° SSW 20:56:31 14° SSW 20:56:31 14° SSW visible
24 Apr ? 21:10:24 10° SW 21:12:53 58° S 21:12:53 58° S visible
25 Apr ? 19:51:33 10° SSW 19:53:45 22° SE 19:55:57 10° E visible
25 Apr ? 21:25:08 10° WSW 21:27:51 74° NNW 21:28:24 51° NE visible
26 Apr ? 20:05:44 10° SW 20:08:21 43° SSE 20:10:58 10° ENE visible
26 Apr ? 21:40:01 10° W 21:42:41 49° NNW 21:43:19 38° NE visible
27 Apr ? 20:20:20 10° WSW 20:23:04 85° SSE 20:25:47 10° ENE visible
27 Apr ? 21:54:57 10° WNW 21:57:34 41° N 21:57:53 39° NNE visible
28 Apr ? 20:35:09 10° W 20:37:52 58° NNW 20:40:33 10° ENE visible
28 Apr ? 22:09:50 10° WNW 22:12:14 41° N 22:12:14 41° N visible
